[[{"header":{"parameterUnit":"m.s-1","parameterCategory":1,"la1":30.2991,"la2":30.254,"lo1":-89.0895,"lo2":-89.0444,"dy":0.0017,"dx":0.0017,"nx":28,"ny":28,"refTime":"2024-04-12T21:00:00:Z","depth":0,"parameterNumber":2,"parameterNumberName":"U-component_of_WINDS"},"data":[0,0,0,0,0,0,0,0,0,0,0,0,0,0,0,0,0,0,0,0,0,0,0,0,0,0,0,0,0,0,0,0,0,0,0,0,0,0,0,0,0,0,0,0,0,0,0,0,0,0,0,0,0,0,0,0,0,0,1.5133,1.5134,0,1.5234,1.5235,1.5237,1.5245,1.5244,1.5242,1.5241,1.5345,1.5349,1.5352,0,0,0,0,0,0,0,0,0,0,0,0,0,1.4943,1.4947,1.5132,1.5134,1.5135,1.5234,1.5235,1.5237,1.5245,1.5244,1.5242,1.5241,1.5344,1.5348,1.5353,0,0,0,0,0,0,0,0,0,0,0,0,0,1.5033,1.4948,1.5132,1.5151,1.5154,1.5234,1.5235,1.5237,1.5245,1.5244,1.5242,1.524,1.5342,1.5348,1.5353,1.5421,0,0,1.5371,1.5373,0,0,0,0,0,0,0,0,1.5028,1.504,1.5147,1.515,1.5153,1.5225,1.5207,1.5299,1.5246,1.521,1.5241,1.524,1.5306,1.5315,1.5338,1.5426,1.5431,1.5371,1.5375,1.5377,1.5379,0,0,0,0,0,0,0,1.5022,1.5036,1.5173,1.5149,1.5152,1.5154,1.5165,1.5224,1.5266,1.5213,1.5214,1.5226,1.5308,1.5332,1.534,1.5432,1.5371,1.5376,1.5379,1.5382,1.5579,1.5581,0,0,0,0,0,0,1.5012,1.503,1.5169,1.5176,1.5085,1.5158,1.5171,1.5204,1.5266,1.5274,1.5227,1.5226,1.5323,1.5333,1.5344,1.5425,1.5377,1.5382,1.5386,1.5577,1.5579,1.5581,0,0,0,0,0,0,1.5008,1.5025,1.5165,1.5103,1.5121,1.5163,1.52,1.5206,1.5231,1.5276,1.5284,1.5245,1.5322,1.5336,1.5401,1.5429,1.5385,1.539,1.5575,1.5578,1.558,1.559,0,0,0,0,0,0,1.5003,1.5023,1.505,1.5104,1.5125,1.5222,1.5202,1.521,1.5241,1.524,1.5295,1.5302,1.5322,1.5393,1.5407,1.5436,1.5394,1.5573,1.5576,1.5579,1.5588,1.5593,1.5598,0,0,0,0,0,1.4996,1.5049,1.5051,1.5068,1.5159,1.5224,1.5235,1.5258,1.5243,1.527,1.5299,1.53,1.5424,1.54,1.5416,1.5447,1.5571,1.5575,1.5579,1.5585,1.5592,1.5598,0,0,0,0,0,0,1.4997,1.5057,1.506,1.5132,1.5173,1.5225,1.5259,1.5264,1.531,1.5307,1.5332,1.5345,1.5409,1.5435,1.5406,1.5514,1.5496,1.5503,1.5495,1.5502,1.5507,1.5498,1.5399,0,0,0,0,0,1.5006,1.5054,1.5103,1.5162,1.5182,1.5217,1.5246,1.526,1.5303,1.532,1.5354,1.5395,1.5443,1.5474,1.5521,1.5592,1.5603,1.5621,1.5626,1.563,1.5636,1.5673,1.5681,1.5595,1.5595,1.5595,0,0,1.5025,1.5063,1.5092,1.5164,1.5197,1.5244,1.5232,1.5284,1.5319,1.5328,1.5391,1.5417,1.5465,1.5533,1.5565,1.5556,1.5662,1.5635,1.5638,1.5642,1.5678,1.5686,1.5693,1.5598,1.5597,1.5597,0,0,1.5083,1.5118,1.5169,1.5202,1.5252,1.5275,1.5287,1.5339,1.5356,1.5421,1.5427,1.547,1.5552,1.5585,1.5613,1.5681,1.5684,1.5696,1.5722,1.5757,1.5764,1.577,1.5792,1.58,1.5702,1.5702,1.5702,0,1.5099,1.5172,1.5195,1.5246,1.5277,1.5287,1.5338,1.537,1.5432,1.5452,1.5443,1.5545,1.5578,1.5652,1.5669,1.5692,1.5705,1.5689,1.5761,1.5768,1.5774,1.5795,1.5804,1.5703,1.5703,1.5703,1.5703,0,1.5189,1.5239,1.5275,1.5335,1.537,1.5421,1.545,1.5483,1.5493,1.5516,1.558,1.562,1.5673,1.5693,1.5703,1.5768,1.5761,1.5756,1.5737,1.5782,1.5803,1.5811,1.5704,1.5704,1.5704,1.5703,0,0,1.5251,1.5322,1.5334,1.536,1.5416,1.5454,1.5505,1.5558,1.5584,1.5627,1.5669,1.5738,1.5733,1.5764,1.5778,1.581,1.5859,1.5801,1.5802,1.5808,1.593,1.5932,1.5941,1.5861,1.5863,1.5864,1.5925,0,1.5313,1.5404,1.5426,1.5503,1.5549,1.5558,1.5602,1.564,1.5663,1.5704,1.573,1.5777,1.5768,1.5787,1.5818,1.5846,1.5883,1.5842,1.5899,1.5901,1.5885,1.5952,1.5955,1.6011,1.5933,1.5935,1.5936,0,1.5398,1.5442,1.5524,1.5571,1.5591,1.563,1.5679,1.5719,1.5762,1.5776,1.581,1.5821,1.5873,1.5852,1.5923,1.5895,1.5919,1.5936,1.5939,1.5944,1.592,1.5957,1.6029,1.6037,1.5949,1.5948,1.5947,0,1.5432,1.5512,1.557,1.5593,1.565,1.5677,1.5702,1.5743,1.5773,1.5815,1.5834,1.5883,1.5908,1.5945,1.5968,1.5951,1.6036,1.6018,1.6048,1.6047,1.6064,1.6063,1.6139,1.6083,1.6083,1.6083,1.6083,0,1.5498,1.5548,1.5586,1.5622,1.5677,1.57,1.5754,1.5779,1.5815,1.5855,1.5867,1.5904,1.5933,1.5974,1.5992,1.6046,1.6059,1.6071,1.6075,1.6069,1.6067,1.6084,1.608,1.6085,1.6085,1.6084,1.6084,0,1.5545,1.5573,1.5637,1.5686,1.5699,1.5737,1.5778,1.5813,1.5835,1.5886,1.5899,1.5935,1.5983,1.601,1.6071,1.6083,1.6143,1.6147,1.6129,1.613,1.6157,1.6154,1.6247,1.6259,1.6196,1.6197,1.6197,0,1.5585,1.5622,1.5675,1.5702,1.5728,1.5772,1.5802,1.5827,1.5857,1.5907,1.5935,1.5985,1.6025,1.6102,1.6133,1.6179,1.6182,1.6211,1.6189,1.6181,1.618,1.6176,1.6179,1.6214,1.6215,1.6215,1.6216,0,1.5651,1.5663,1.5705,1.5753,1.5788,1.5826,1.5864,1.5886,1.5917,1.595,1.5999,1.6031,1.6092,1.614,1.6189,1.6214,1.6219,1.6223,1.6232,1.6225,1.6212,1.6217,1.6137,1.622,1.622,1.6219,1.6219,1.6219,1.5694,1.5727,1.5769,1.5815,1.5846,1.5881,1.5915,1.5942,1.5984,1.6036,1.6048,1.6099,1.6139,1.6205,1.6231,1.6271,1.6265,1.6279,1.6282,1.6284,1.6284,1.6207,1.628,1.628,1.628,1.628,1.628,0,1.5759,1.5786,1.5829,1.5881,1.5917,1.592,1.5962,1.5991,1.6037,1.6074,1.6113,1.6169,1.6215,1.6249,1.6296,1.6321,1.6324,1.6332,1.633,1.6335,1.6288,1.6274,1.6328,1.6328,1.6328,1.6328,1.6328,1.6328,1.5797,1.5853,1.5869,1.5939,1.5966,1.6016,1.6039,1.6071,1.61,1.6162,1.62,1.6222,1.6258,1.6307,1.6349,1.6357,1.6373,1.638,1.6389,1.6344,1.6338,1.6333,1.6321,1.6384,1.6384,1.6433,1.6433,1.6434]},{"header":{"parameterUnit":"m.s-1","parameterCategory":1,"la1":30.2991,"la2":30.254,"lo1":-89.0895,"lo2":-89.0444,"dy":0.0017,"dx":0.0017,"nx":28,"ny":28,"refTime":"2024-04-12T21:00:00:Z","depth":0,"parameterNumber":3,"parameterNumberName":"V-component_of_WINDS"},"data":[0,0,0,0,0,0,0,0,0,0,0,0,0,0,0,0,0,0,0,0,0,0,0,0,0,0,0,0,0,0,0,0,0,0,0,0,0,0,0,0,0,0,0,0,0,0,0,0,0,0,0,0,0,0,0,0,0,0,3.3371,3.3371,0,3.3405,3.3405,3.3405,3.3352,3.335,3.3349,3.3347,3.3379,3.3381,3.3384,0,0,0,0,0,0,0,0,0,0,0,0,0,3.3256,3.3259,3.3371,3.3371,3.3372,3.3405,3.3405,3.3406,3.3353,3.335,3.3348,3.3346,3.3378,3.3381,3.3384,0,0,0,0,0,0,0,0,0,0,0,0,0,3.33,3.326,3.3371,3.3349,3.3348,3.3405,3.3405,3.3406,3.3353,3.335,3.3348,3.3345,3.3377,3.3381,3.3385,3.3463,0,0,3.3396,3.3398,0,0,0,0,0,0,0,0,3.3297,3.3304,3.3352,3.3351,3.3349,3.3372,3.3376,3.3425,3.3354,3.3351,3.3347,3.3344,3.3379,3.3382,3.3394,3.3465,3.3466,3.3397,3.3399,3.3401,3.3402,0,0,0,0,0,0,0,3.3294,3.3302,3.3384,3.3353,3.3351,3.3337,3.334,3.3385,3.338,3.3351,3.3347,3.3352,3.3377,3.3391,3.3395,3.3466,3.3397,3.34,3.3402,3.3404,3.3601,3.3603,0,0,0,0,0,0,3.3294,3.33,3.3383,3.3385,3.3316,3.3341,3.3344,3.3367,3.3379,3.3378,3.3354,3.335,3.3386,3.339,3.3396,3.3487,3.3401,3.3404,3.3406,3.3598,3.3601,3.3604,0,0,0,0,0,0,3.3292,3.3302,3.3382,3.3342,3.3351,3.3346,3.3372,3.3369,3.3383,3.3382,3.338,3.337,3.3384,3.339,3.3446,3.3487,3.3406,3.3409,3.3594,3.3599,3.3603,3.3671,0,0,0,0,0,0,3.3289,3.3302,3.3333,3.3343,3.3353,3.3433,3.3374,3.3372,3.339,3.3384,3.3395,3.3395,3.3382,3.3441,3.345,3.3491,3.3412,3.359,3.3596,3.3601,3.3665,3.3677,3.3687,0,0,0,0,0,3.3285,3.335,3.3335,3.3345,3.3392,3.3436,3.3441,3.3426,3.3393,3.3423,3.3422,3.3394,3.3482,3.3447,3.3457,3.35,3.3588,3.3595,3.3601,3.366,3.3675,3.3687,0,0,0,0,0,0,3.3345,3.3351,3.3334,3.3404,3.342,3.3427,3.3464,3.3443,3.3467,3.346,3.344,3.3443,3.3503,3.3507,3.3469,3.3575,3.3529,3.3538,3.357,3.3584,3.3595,3.3593,3.3416,0,0,0,0,0,3.3366,3.3403,3.3406,3.3468,3.3477,3.3469,3.3488,3.3475,3.349,3.3496,3.3499,3.3514,3.3544,3.3564,3.3593,3.3665,3.3666,3.3699,3.3711,3.372,3.3727,3.3764,3.3779,3.3626,3.3626,3.3626,0,0,3.3411,3.3419,3.3443,3.348,3.349,3.3527,3.3475,3.3517,3.3543,3.3502,3.3555,3.3558,3.3573,3.3637,3.3666,3.3642,3.377,3.3728,3.3736,3.3738,3.3773,3.3787,3.38,3.363,3.363,3.3629,0,0,3.351,3.3521,3.3573,3.3584,3.3601,3.3595,3.3608,3.3618,3.3618,3.3671,3.364,3.3671,3.3725,3.3736,3.3749,3.3851,3.3825,3.3861,3.3919,3.3955,3.3967,3.3978,3.4013,3.4026,3.3869,3.3869,3.3869,0,3.3563,3.3618,3.3602,3.3645,3.3661,3.3626,3.3677,3.3689,3.3714,3.3725,3.3699,3.3764,3.3772,3.3838,3.3863,3.3875,3.3887,3.3859,3.3967,3.3977,3.3987,3.402,3.4033,3.3873,3.3872,3.3872,3.3871,0,3.3681,3.372,3.376,3.3785,3.3806,3.3853,3.3842,3.3865,3.385,3.3847,3.39,3.3908,3.3936,3.3951,3.3937,3.4014,3.3999,3.3971,3.3923,3.4006,3.4037,3.4049,3.3879,3.3877,3.3876,3.3875,0,0,3.382,3.3834,3.3849,3.3859,3.3874,3.3903,3.3948,3.3976,3.3995,3.4013,3.4049,3.4095,3.4068,3.4083,3.4069,3.4101,3.418,3.4068,3.4068,3.4087,3.4264,3.4284,3.4299,3.4163,3.4165,3.4167,3.4262,0,3.3917,3.3995,3.3981,3.4057,3.4091,3.4057,3.4096,3.4109,3.4107,3.4135,3.4132,3.4164,3.4127,3.4135,3.4166,3.4164,3.4214,3.4157,3.4195,3.4196,3.4191,3.4315,3.4338,3.4426,3.4274,3.4276,3.4277,0,3.4042,3.4065,3.4144,3.4152,3.4166,3.4201,3.4225,3.4253,3.4266,3.4262,3.4278,3.4258,3.43,3.4254,3.4311,3.4273,3.4287,3.4288,3.4291,3.4293,3.4241,3.4319,3.4455,3.4467,3.4296,3.4295,3.4293,0,3.4133,3.4183,3.4237,3.4247,3.4258,3.4283,3.4289,3.4299,3.4317,3.4337,3.4348,3.4373,3.4387,3.4406,3.4393,3.436,3.4452,3.4405,3.4449,3.4449,3.4469,3.4468,3.4607,3.4481,3.4481,3.448,3.448,0,3.4243,3.4292,3.4277,3.431,3.4363,3.4346,3.4399,3.4401,3.441,3.4441,3.4414,3.4444,3.4425,3.4453,3.4443,3.4491,3.4498,3.4495,3.4491,3.4497,3.4497,3.4505,3.4498,3.4484,3.4483,3.4482,3.4482,0,3.4353,3.4346,3.4401,3.4407,3.441,3.4449,3.4453,3.4483,3.4479,3.4518,3.4527,3.452,3.4551,3.454,3.4573,3.4566,3.4628,3.4617,3.4623,3.462,3.4664,3.466,3.4813,3.4831,3.4695,3.4696,3.4697,0,3.4424,3.4461,3.4471,3.449,3.4498,3.4529,3.4546,3.453,3.4549,3.4566,3.4593,3.4622,3.4645,3.4696,3.4693,3.4718,3.4706,3.4758,3.471,3.4714,3.4705,3.4703,3.4706,3.4768,3.4769,3.4771,3.4772,0,3.4549,3.4542,3.4569,3.4594,3.4616,3.4635,3.4651,3.4668,3.4652,3.4675,3.4707,3.4724,3.4758,3.4786,3.4808,3.4813,3.4789,3.4787,3.4798,3.4803,3.4805,3.4803,3.4648,3.4783,3.4782,3.4781,3.4781,3.478,3.464,3.467,3.4682,3.4712,3.4722,3.4738,3.4766,3.4765,3.4791,3.4818,3.4806,3.4842,3.4853,3.488,3.4888,3.4915,3.4895,3.4912,3.4916,3.492,3.4925,3.4802,3.4919,3.4919,3.4919,3.4918,3.4918,0,3.4762,3.4767,3.4795,3.4819,3.4842,3.4819,3.4835,3.4855,3.4888,3.49,3.4922,3.4958,3.4985,3.4984,3.5009,3.5031,3.5021,3.5038,3.5035,3.5037,3.4942,3.4929,3.5046,3.5046,3.5046,3.5046,3.5046,3.5046,3.4828,3.4878,3.4873,3.4928,3.4932,3.4968,3.4979,3.4993,3.5002,3.5043,3.5066,3.5065,3.5072,3.5097,3.512,3.5119,3.5129,3.515,3.5144,3.5056,3.5043,3.5031,3.5019,3.5152,3.5152,3.5236,3.5237,3.5238]}]]